FW2689 Weather Reports


time (UTC)temp
C
wind
direction
speed
KPH
gust
KPH
rain 1hr
cm
rain 24hr
cm
rain mn
cm
humidity
%
barometer
mb
20260504130733 24 183 0.0 3.2 0.00 0.25 0.00 94 1010.9
20260504130233 24 201 1.6 4.8 0.00 0.25 0.00 94 1011.0
20260504110258 23 0.0 0.0 0.00 0.25 0.00 93 1010.0
20260504100348 23 0.0 0.0 0.00 0.25 0.00 93 1009.7
20260504081811 24 0.0 0.0 0.00 0.25 0.00 93 1010.0
20260504081215 24 0.0 0.0 0.00 0.25 0.00 93 1010.1
20260504080659 24 0.0 0.0 0.00 0.25 0.00 93 1010.2
20260504080134 24 0.0 0.0 0.00 0.25 0.00 93 1010.2
20260504070246 24 0.0 0.0 0.00 0.25 0.00 93 1010.9
20260504050437 25 0.0 0.0 0.03 0.23 0.23 92 1013.1
20260504050113 25 0.0 0.0 0.03 0.23 0.23 92 1013.2
20260504045331 25 0.0 0.0 0.03 0.23 0.23 92 1013.3
20260504044805 25 0.0 0.0 0.05 0.23 0.23 92 1013.3
20260504044222 25 0.0 0.0 0.05 0.23 0.23 92 1013.2
20260504043655 25 0.0 0.0 0.03 0.20 0.20 92 1013.3
20260504043144 25 0.0 0.0 0.03 0.20 0.20 92 1013.3
20260504043054 25 0.0 0.0 0.03 0.20 0.20 92 1013.2
20260504042036 25 0.0 0.0 0.03 0.20 0.20 92 1013.2
20260504041452 25 0.0 0.0 0.03 0.20 0.20 92 1013.2
20260504041116 25 0.0 0.0 0.03 0.20 0.20 92 1013.3
20260504040350 25 0.0 0.0 0.03 0.20 0.20 92 1013.2
20260504035824 25 0.0 0.0 0.03 0.20 0.20 92 1013.2
20260504035254 25 0.0 0.0 0.03 0.20 0.20 92 1013.2
20260504034711 25 0.0 0.0 0.00 0.18 0.18 92 1013.2
20260504034402 25 167 0.0 1.6 0.00 0.18 0.18 92 1013.2
20260504033800 25 167 0.0 4.8 0.00 0.18 0.18 92 1013.1
20260504033035 25 167 0.0 4.8 0.00 0.18 0.18 91 1013.1
20260504032738 25 182 0.0 4.8 0.00 0.18 0.18 91 1013.0
20260504032013 25 206 0.0 4.8 0.00 0.18 0.18 91 1012.9
20260504031450 25 188 0.0 1.6 0.00 0.18 0.18 91 1012.9
20260504030925 25 189 0.0 3.2 0.00 0.18 0.18 91 1012.8
20260504030405 25 207 0.0 3.2 0.00 0.18 0.18 91 1012.8
20260504025903 25 188 0.0 4.8 0.00 0.18 0.18 91 1012.7
20260504025404 25 207 0.0 4.8 0.00 0.18 0.18 91 1012.7
20260504024857 25 190 0.0 3.2 0.00 0.18 0.18 91 1012.7
20260504024336 25 207 0.0 3.2 0.00 0.18 0.18 91 1012.6
20260504023814 25 186 0.0 1.6 0.00 0.18 0.18 91 1012.6
20260504023311 25 188 0.0 4.8 0.00 0.18 0.18 91 1012.4
20260504022807 25 218 0.0 4.8 0.00 0.18 0.18 91 1012.3
20260504022308 25 207 0.0 3.2 0.00 0.18 0.18 91 1012.2
20260504021746 25 186 0.0 3.2 0.03 0.18 0.18 91 1012.3
20260504021234 25 186 0.0 3.2 0.03 0.18 0.18 91 1012.4
20260504020659 25 207 0.0 3.2 0.03 0.18 0.18 91 1012.5
20260504020200 25 186 0.0 3.2 0.03 0.18 0.18 91 1012.5
20260504015652 25 188 0.0 4.8 0.03 0.18 0.18 91 1012.5
20260504015149 25 187 0.0 4.8 0.05 0.18 0.18 90 1012.5
20260504014915 26 185 0.0 4.8 0.05 0.18 0.18 90 1012.6
20260504014147 26 186 0.0 4.8 0.05 0.18 0.18 90 1012.5
20260504013641 26 203 0.0 1.6 0.05 0.18 0.18 90 1012.5
20260504013138 26 186 0.0 1.6 0.05 0.18 0.18 90 1012.4
20260504012614 26 186 0.0 1.6 0.08 0.18 0.18 90 1012.4
20260504012313 26 186 0.0 1.6 0.05 0.15 0.15 90 1012.3
20260504011520 26 185 0.0 1.6 0.08 0.15 0.15 90 1012.3
20260504010951 26 186 0.0 6.4 0.10 0.15 0.15 90 1012.2
20260504010447 26 186 0.0 6.4 0.10 0.15 0.15 90 1012.0
20260504005947 26 167 0.0 1.6 0.10 0.15 0.15 90 1011.9
20260504005420 26 168 0.0 4.8 0.08 0.15 0.15 90 1011.9
20260504004919 26 184 0.0 6.4 0.08 0.15 0.15 90 1011.8
20260504004419 26 167 0.0 6.4 0.10 0.15 0.15 90 1011.6
20260504003918 26 162 0.0 3.2 0.10 0.15 0.15 89 1011.6
20260504003414 26 163 0.0 3.2 0.08 0.13 0.13 89 1011.5
20260504002915 26 178 0.0 3.2 0.05 0.10 0.10 89 1011.5
20260504002348 26 178 0.0 3.2 0.05 0.10 0.10 89 1011.5
20260504001819 26 161 0.0 6.4 0.05 0.08 0.08 89 1011.4
20260504001318 26 178 0.0 6.4 0.05 0.08 0.08 89 1011.4
20260504000749 26 65 0.0 3.2 0.05 0.05 0.05 89 1011.3
20260504000248 26 65 0.0 3.2 0.05 0.05 0.05 88 1011.2
20260503235719 26 60 0.0 3.2 0.05 0.05 0.05 88 1011.1
20260503235218 26 65 0.0 3.2 0.05 0.05 0.05 88 1011.1
20260503234652 26 59 0.0 3.2 0.05 0.05 0.05 88 1010.9
20260503234405 27 65 0.0 1.6 0.05 0.05 0.05 88 1010.8
20260503233907 27 65 0.0 1.6 0.05 0.05 0.05 88 1010.9
20260503233118 27 65 0.0 0.0 0.05 0.05 0.05 88 1010.8
20260503232617 27 59 0.0 0.0 0.05 0.05 0.05 87 1010.7
20260503232109 27 59 0.0 1.6 0.03 0.03 0.03 87 1010.7
20260503231832 27 59 0.0 1.6 0.03 0.03 0.03 87 1010.5
20260503231044 27 59 0.0 1.6 0.03 0.03 0.03 87 1010.4
20260503230512 27 59 0.0 0.0 0.00 0.00 0.03 87 1010.4
20260503230013 27 59 0.0 0.0 0.00 0.00 0.00 87 1010.3
20260503225736 27 59 0.0 0.0 0.00 0.00 0.00 87 1010.3
20260503224948 27 59 0.0 1.6 0.00 0.00 0.00 87 1010.1
20260503224413 27 65 0.0 1.6 0.00 0.00 0.00 87 1010.1
20260503223909 27 59 0.0 0.0 0.00 0.00 0.00 87 1010.0
20260503223405 27 59 0.0 0.0 0.00 0.00 0.00 87 1010.1
20260503222838 27 65 0.0 1.6 0.00 0.00 0.00 87 1010.1
20260503222314 27 65 0.0 1.6 0.00 0.00 0.00 86 1010.1
20260503222007 27 65 0.0 0.0 0.00 0.00 0.00 86 1010.1
20260503221244 27 65 0.0 0.0 0.00 0.00 0.00 86 1010.1
20260503220715 27 65 0.0 0.0 0.00 0.00 0.00 86 1010.0
20260503220214 27 65 0.0 0.0 0.00 0.00 0.00 86 1010.0
20260503215659 27 59 0.0 0.0 0.00 0.00 0.00 86 1010.0
20260503215204 27 65 0.0 0.0 0.00 0.00 0.00 86 1010.0
20260503214635 27 65 0.0 0.0 0.00 0.00 0.00 86 1010.1
20260503214132 27 65 0.0 1.6 0.00 0.00 0.00 86 1010.1
20260503213632 27 59 0.0 1.6 0.00 0.00 0.00 86 1010.2
20260503213126 27 59 0.0 1.6 0.00 0.00 0.00 87 1010.2
20260503212626 27 59 0.0 1.6 0.00 0.00 0.00 87 1010.3
20260503212322 27 59 0.0 1.6 0.00 0.00 0.00 87 1010.4
20260503211531 27 59 0.0 1.6 0.00 0.00 0.00 87 1010.3
20260503211030 27 59 0.0 1.6 0.00 0.00 0.00 87 1010.3
20260503210525 27 59 0.0 1.6 0.00 0.00 0.00 87 1010.3
20260503210024 27 60 0.0 1.6 0.00 0.00 0.00 88 1010.3
20260503205455 27 59 0.0 1.6 0.00 0.00 0.00 88 1010.1
20260503204954 27 60 0.0 1.6 0.00 0.00 0.00 88 1010.0
20260503204642 27 59 0.0 1.6 0.00 0.00 0.00 88 1010.3
20260503203924 27 59 0.0 1.6 0.00 0.00 0.00 88 1010.2
20260503203410 27 58 0.0 1.6 0.00 0.00 0.00 88 1010.2
20260503202854 27 59 0.0 1.6 0.00 0.00 0.00 88 1010.3
20260503202328 27 59 0.0 1.6 0.00 0.00 0.00 88 1010.3
20260503201813 27 65 0.0 1.6 0.00 0.00 0.00 88 1010.3
20260503201318 27 59 0.0 1.6 0.00 0.00 0.00 88 1010.3
20260503200749 27 59 0.0 1.6 0.00 0.00 0.00 88 1010.3
20260503200245 28 59 0.0 1.6 0.00 0.00 0.00 87 1010.5
20260503195740 28 59 1.6 1.6 0.00 0.00 0.00 88 1010.6
20260503195216 28 59 0.0 1.6 0.00 0.00 0.00 88 1010.5
20260503194647 27 59 0.0 1.6 0.00 0.00 0.00 88 1010.5
20260503194146 27 59 0.0 1.6 0.00 0.00 0.00 88 1010.5
20260503193616 27 59 0.0 1.6 0.00 0.00 0.00 87 1010.6
20260503193113 28 59 0.0 1.6 0.00 0.00 0.00 88 1010.6
20260503192611 28 59 0.0 1.6 0.00 0.00 0.00 86 1010.6
20260503192110 28 69 0.0 3.2 0.00 0.00 0.00 86 1010.7
20260503191542 29 59 0.0 3.2 0.00 0.00 0.00 85 1010.6
20260503191036 29 69 1.6 1.6 0.00 0.00 0.00 86 1010.6
20260503190755 28 65 1.6 1.6 0.00 0.00 0.00 86 1010.6
20260503190034 28 65 1.6 1.6 0.00 0.00 0.00 87 1010.8
20260503185508 28 142 0.0 1.6 0.00 0.00 0.00 88 1010.9
20260503185001 28 177 0.0 1.6 0.00 0.00 0.00 88 1011.0
20260503184500 28 166 0.0 1.6 0.00 0.00 0.00 88 1011.1
20260503183955 28 149 0.0 1.6 0.00 0.00 0.00 88 1011.1
20260503183456 28 148 0.0 1.6 0.00 0.00 0.00 87 1011.1
20260503182925 28 148 0.0 1.6 0.00 0.00 0.00 87 1011.3
20260503182650 28 148 0.0 1.6 0.00 0.00 0.00 86 1011.4
20260503181855 29 148 0.0 1.6 0.00 0.00 0.00 86 1011.5
20260503181355 29 148 0.0 1.6 0.00 0.00 0.00 85 1011.5
20260503180825 29 148 1.6 1.6 0.00 0.00 0.00 86 1011.6
20260503180813 29 148 1.6 1.6 0.00 0.00 0.00 86 1011.7
20260503175755 29 167 1.6 1.6 0.00 0.00 0.00 85 1011.8
20260503175254 29 148 1.6 1.6 0.00 0.00 0.00 85 1011.8
20260503174728 30 148 1.6 1.6 0.00 0.00 0.00 85 1011.8
20260503174213 29 149 1.6 1.6 0.00 0.00 0.00 86 1011.8
20260503173718 29 148 1.6 1.6 0.00 0.00 0.00 85 1011.9
20260503173213 29 149 1.6 1.6 0.00 0.00 0.00 85 1011.8
20260503172710 29 149 1.6 1.6 0.00 0.00 0.00 84 1011.8
20260503172141 29 148 0.0 1.6 0.00 0.00 0.00 84 1011.8
20260503171621 29 148 0.0 1.6 0.00 0.00 0.00 84 1011.9
20260503171049 29 166 0.0 1.6 0.00 0.00 0.00 84 1012.1
20260503170546 29 148 0.0 1.6 0.00 0.00 0.00 83 1012.3
20260503150554 30 167 1.6 6.4 0.00 0.00 0.00 79 1012.4